Theta_e
301 300 302 302 303 303 302 301 300 301 301 301 301 301 301 302 300 303 305 306 308 310 311 311 311 311 310 310 310 310 309 308 307 307 305 304 303 302 301 301 301 300
299 299 299 299 299 297 300 300 300 300 301 300 301 301 299 298 298 299 301 302 303 305 307 308 308 308 309 309 309 309 309 309 308 307 306 304 304 303 302 302 301 301
297 297 298 299 300 300 299 298 298 299 299 300 298 297 298 297 298 297 298 299 300 301 303 304 306 306 307 307 307 306 306 307 307 307 305 305 304 303 303 303 302 301
296 297 298 299 299 299 298 297 297 297 295 296 297 298 297 296 296 296 296 296 298 298 298 299 301 303 304 305 305 305 306 306 307 305 304 303 303 303 303 302 301 301
296 297 297 297 297 297 295 297 297 297 297 298 295 293 295 295 294 294 294 294 295 296 295 296 297 298 299 302 303 303 303 303 303 303 303 302 302 301 301 301 299 299
294 295 296 296 296 296 296 297 298 297 297 294 296 295 295 294 294 294 293 293 292 294 294 294 295 295 296 299 301 302 302 300 298 299 300 299 298 297 300 299 298 298
294 293 294 294 294 294 295 296 296 295 295 295 291 294 292 293 293 294 294 293 293 293 293 293 293 293 293 296 298 298 297 297 296 296 297 297 296 295 295 296 296 297
292 291 292 291 292 293 293 294 294 293 293 289 291 293 289 293 293 293 292 292 292 293 292 292 292 294 292 292 294 295 295 296 296 295 295 295 295 296 295 295 295 295
290 290 289 289 290 292 291 292 292 289 288 290 291 291 288 290 292 291 291 291 292 292 292 292 292 292 292 292 293 294 294 294 295 295 295 295 294 295 295 294 294 294
290 289 288 288 288 290 290 290 290 289 288 289 290 289 290 290 289 291 290 290 291 291 291 291 291 291 291 291 293 293 293 294 294 294 294 295 295 295 295 294 294 294
289 288 287 288 289 289 289 289 289 288 287 289 289 289 290 289 289 288 290 291 291 292 292 291 291 291 291 291 291 291 292 293 293 293 294 294 294 295 293 295 294 294
288 287 288 288 288 288 289 289 288 287 288 288 288 290 290 289 290 289 289 291 291 291 291 291 291 290 291 292 292 291 291 292 292 293 293 294 294 294 294 294 294 294
288 288 288 288 288 288 288 288 288 287 287 288 288 288 289 290 289 289 289 289 291 290 291 291 291 290 290 291 291 291 291 292 292 292 292 293 293 294 294 294 294 294
288 287 287 288 288 287 288 287 287 287 287 287 286 288 288 289 289 290 289 288 289 290 290 290 290 290 290 291 291 290 290 290 291 291 292 292 292 292 292 292 293 293
287 287 287 287 287 287 287 287 287 287 287 287 286 287 288 288 288 288 288 289 289 289 289 289 290 291 291 291 291 290 290 290 291 291 291 291 291 291 291 291 291 292
287 287 287 286 286 287 287 287 287 287 286 286 287 287 287 287 287 287 288 288 289 289 289 289 290 291 290 292 293 292 290 290 290 290 290 290 290 290 290 290 290 290
287 287 287 287 287 286 286 287 287 286 286 286 286 286 287 287 286 287 287 287 288 289 289 289 290 290 291 293 294 294 291 289 289 289 290 290 290 290 290 290 290 289
287 287 287 287 287 287 287 287 286 286 286 286 286 286 286 285 285 287 287 287 288 288 288 289 290 290 292 293 294 294 293 290 290 290 290 290 290 290 290 290 290 289
286 286 286 287 287 287 287 287 286 286 286 287 287 287 285 285 287 286 287 286 287 288 288 289 289 291 293 293 293 294 294 292 290 290 290 290 290 290 290 290 289 289
286 286 286 286 286 286 286 286 286 286 286 286 286 286 285 286 286 286 286 286 287 287 288 288 288 290 292 293 293 293 293 293 290 289 289 290 290 290 289 289 289 289
286 286 285 286 286 286 285 286 286 286 286 286 286 286 286 287 287 287 287 286 286 287 287 287 288 290 291 292 292 293 293 293 290 289 289 289 289 289 289 289 288 288
285 285 285 285 285 285 285 285 286 286 286 286 286 286 285 285 285 285 286 286 286 286 286 287 288 290 291 291 292 292 293 290 288 288 288 288 288 288 288 288 288 287
285 285 285 285 285 285 285 285 285 286 286 284 285 285 285 285 285 286 286 285 286 285 285 286 287 288 290 290 291 292 291 288 287 287 287 287 287 287 287 287 286 286
285 284 284 284 284 284 285 285 285 285 285 284 284 285 286 286 285 285 285 284 284 285 285 285 286 286 289 290 290 291 290 287 286 286 286 286 286 287 286 286 285 285
284 284 283 283 284 284 284 284 285 285 285 284 284 283 284 285 284 284 284 284 283 284 284 284 285 285 288 289 289 290 289 287 286 285 285 286 286 286 285 284 284 284
283 283 283 283 283 283 284 284 284 283 283 283 283 283 283 283 283 282 282 283 283 282 282 283 283 283 284 288 289 289 290 287 285 285 285 285 285 285 283 282 282 282
Wind_Speed
6 5 7 6 7 6 5 6 6 7 7 6 7 7 8 8 5 7 8 8 8 9 8 8 8 7 6 6 6 5 6 8 9 10 11 11 12 13 13 14 13 12
7 6 5 5 5 5 6 6 7 7 7 7 7 6 5 5 5 6 7 7 7 8 8 8 8 8 8 8 8 8 8 8 10 8 10 12 12 12 15 16 16 14
5 5 6 7 8 7 7 6 6 6 6 7 5 4 5 5 6 5 6 6 7 7 7 8 8 8 8 8 7 8 9 9 11 8 9 12 12 14 14 14 14 15
5 6 7 7 7 7 6 6 6 6 5 6 6 6 5 4 5 6 6 6 6 7 7 7 8 8 8 8 8 8 9 10 10 8 9 8 10 11 11 10 11 11
5 6 6 6 5 5 5 6 8 7 7 8 5 4 5 5 6 6 6 6 6 7 6 7 7 7 7 7 7 8 8 8 7 7 9 10 9 9 9 9 11 12
5 5 5 5 6 6 7 8 8 6 6 5 8 6 6 6 6 6 6 7 7 7 7 7 7 7 6 7 7 8 8 7 7 7 8 9 8 7 8 9 11 12
6 4 5 5 5 5 7 7 6 5 5 6 4 7 5 6 7 8 8 8 8 8 8 8 8 8 7 7 8 9 8 7 6 7 9 9 7 8 8 9 10 10
5 4 4 4 5 5 7 7 6 5 5 5 6 6 5 7 7 7 7 7 8 8 8 8 8 8 7 7 8 9 9 8 8 8 8 9 7 9 8 8 8 10
5 5 4 4 5 6 6 7 6 5 5 6 7 6 5 7 7 7 7 7 7 8 8 8 8 8 7 8 9 10 10 8 8 8 10 10 10 10 9 8 9 10
5 5 5 5 5 6 6 7 6 6 4 6 7 5 7 6 6 7 6 7 8 8 8 8 8 7 7 9 10 10 9 9 8 9 9 10 10 10 9 9 10 10
6 5 5 6 7 6 7 7 6 6 5 6 6 7 7 6 6 5 7 7 9 9 9 8 9 8 8 9 9 8 9 9 9 9 9 10 10 10 10 10 10 11
6 6 5 6 7 7 7 6 6 5 6 5 6 8 7 7 7 6 7 9 8 9 9 9 8 8 9 10 9 9 9 9 9 9 9 9 9 9 9 9 10 11
6 6 6 6 6 7 6 6 6 6 5 7 6 7 7 8 7 8 7 8 9 8 9 9 8 8 9 9 9 9 9 10 10 10 9 9 9 10 9 9 10 10
6 5 5 6 6 5 6 6 6 6 6 6 5 7 8 8 8 8 7 6 8 9 9 7 8 8 9 10 9 9 9 10 10 10 9 9 9 9 9 9 10 10
5 5 5 5 5 5 6 6 6 6 5 5 5 6 6 7 7 6 7 8 8 8 9 8 9 10 9 10 10 10 10 11 10 10 10 10 9 9 9 9 9 9
6 6 6 5 5 6 6 6 6 6 5 6 6 6 6 6 6 6 7 9 9 9 8 8 9 9 11 16 14 11 10 9 9 10 9 9 9 9 9 9 10 9
6 7 7 7 7 6 6 6 6 5 5 6 6 6 7 6 6 7 8 8 9 9 9 9 9 9 13 16 18 18 11 8 9 9 8 9 9 10 11 10 9 9
7 8 8 9 8 8 8 7 7 6 6 6 6 7 6 5 6 8 8 8 8 8 9 10 10 11 15 17 17 17 15 11 9 9 9 9 9 10 10 9 9 8
8 9 9 9 9 9 8 8 8 8 8 8 8 7 5 6 8 7 8 7 7 9 11 11 11 13 15 17 16 17 17 15 10 10 9 10 9 10 10 10 8 8
7 8 9 9 8 8 8 8 8 9 8 7 8 7 7 8 7 9 8 8 8 10 11 11 11 11 15 16 16 17 18 15 10 10 10 10 10 9 9 9 9 8
8 7 8 8 8 8 8 8 8 9 8 7 7 8 8 9 9 8 9 7 8 9 10 12 11 12 14 16 16 17 17 15 10 9 9 9 9 9 9 9 9 9
8 9 8 8 8 8 8 9 8 8 9 9 8 8 7 7 8 7 10 10 9 8 9 13 11 12 14 15 16 17 18 11 9 9 10 9 9 9 8 8 8 8
10 11 12 11 10 11 11 10 9 10 8 5 8 8 8 8 8 9 8 8 9 8 10 12 12 10 13 15 16 17 13 9 9 9 9 10 10 8 8 8 7 7
11 10 12 12 12 12 12 12 9 8 7 5 8 10 11 9 7 9 8 7 9 10 10 11 13 9 12 15 16 17 14 10 8 9 9 9 9 8 7 7 8 11
9 9 9 10 11 11 10 11 11 10 9 7 7 7 10 9 8 9 10 8 8 10 11 12 12 11 11 14 15 16 13 9 8 8 9 9 8 8 6 7 6 8
8 9 10 9 11 12 11 9 9 10 9 8 8 6 9 9 8 8 11 12 8 8 9 9 11 11 8 14 15 16 17 10 7 8 10 9 8 8 7 6 6 6
Wind_Direction
232 223 231 231 235 232 232 225 223 224 225 220 220 224 215 223 214 214 222 227 231 236 238 242 242 242 236 231 225 224 222 223 223 218 216 214 221 220 222 224 223 222
231 231 238 241 250 238 232 222 229 219 230 224 226 227 228 217 220 208 216 221 224 228 230 234 235 237 239 237 232 235 239 234 234 215 219 215 221 218 225 223 222 222
237 234 232 231 233 234 232 229 227 230 230 233 232 228 232 214 222 217 219 218 222 224 225 228 232 232 233 233 230 232 236 238 243 226 220 221 217 219 222 221 224 221
240 233 235 239 237 240 235 232 230 231 237 243 229 227 222 225 217 222 221 220 223 225 222 223 226 227 226 227 227 232 235 238 240 229 229 228 224 224 225 222 226 228
240 241 239 245 245 242 240 236 239 229 225 228 234 225 224 223 223 224 222 225 222 230 226 226 225 227 221 227 225 235 236 242 237 228 230 231 227 221 224 220 222 226
259 245 245 241 240 238 240 239 242 241 242 240 232 218 215 213 219 222 219 223 222 226 229 228 228 226 219 225 227 234 234 235 231 228 235 235 234 222 225 221 224 227
260 256 257 248 253 243 247 251 252 243 243 244 254 240 224 225 221 219 218 218 221 224 223 224 224 225 217 218 224 232 231 231 230 226 232 239 233 232 228 227 229 231
276 270 266 264 256 258 254 258 257 248 247 251 240 245 214 235 235 232 224 222 225 229 224 223 223 222 215 213 224 229 231 223 227 225 233 239 229 237 229 228 228 231
303 300 287 272 268 266 263 261 261 258 246 243 248 250 234 233 238 234 231 228 232 235 232 229 223 221 213 213 224 226 228 228 223 221 229 234 232 234 231 224 227 230
309 303 302 284 273 268 268 265 261 258 243 241 250 250 247 242 236 240 235 231 236 238 235 234 231 225 221 220 224 222 225 229 225 226 228 232 234 235 229 223 226 230
314 313 302 290 277 274 269 270 267 265 252 247 252 254 248 251 248 230 236 234 234 235 235 231 230 223 224 231 231 225 226 227 227 228 230 234 235 237 233 228 227 228
315 312 298 284 280 278 273 274 273 264 260 253 241 253 253 246 245 237 226 236 234 237 235 234 228 221 225 231 232 227 228 229 229 229 231 233 236 235 235 232 232 231
309 303 295 291 287 284 285 283 275 268 259 258 246 244 250 255 247 245 237 234 239 237 236 233 230 222 225 230 232 229 226 229 230 230 232 232 234 235 234 235 235 235
310 305 299 290 286 284 282 280 278 272 261 259 254 250 248 249 252 250 250 234 242 240 241 234 232 227 227 230 230 227 225 231 229 230 233 236 236 236 233 233 233 233
316 312 298 293 293 292 288 284 277 271 269 263 256 257 253 253 253 252 254 249 244 240 243 233 232 231 228 227 230 231 227 232 230 229 228 234 237 236 233 231 233 233
328 320 320 313 312 308 300 294 287 282 276 271 263 258 259 255 255 249 247 250 253 249 243 239 237 236 232 230 228 229 227 231 232 232 230 233 236 240 238 231 232 232
335 332 328 329 323 316 310 305 298 291 283 275 268 261 259 257 249 252 248 247 249 253 252 246 245 242 238 236 236 233 230 232 231 235 228 231 235 238 243 236 232 228
336 333 334 329 330 324 322 312 305 298 288 277 276 272 264 253 251 249 251 249 250 252 253 251 249 242 239 241 239 238 232 232 234 237 234 231 230 234 240 241 238 232
337 337 332 327 325 320 316 316 311 307 299 295 285 275 277 264 258 258 255 250 247 254 254 250 251 245 242 243 241 239 236 232 237 234 237 238 233 233 237 239 237 236
335 332 328 322 316 315 313 309 308 297 293 286 286 289 275 274 269 262 262 254 247 250 256 258 253 249 243 244 242 241 239 236 240 237 239 240 238 234 236 238 235 233
332 328 322 320 317 315 314 309 306 302 299 293 287 284 283 277 277 275 266 258 256 251 258 261 256 249 245 244 243 242 241 238 241 241 243 244 240 236 235 235 232 230
329 323 320 319 319 318 315 311 309 301 302 304 294 286 274 271 275 262 268 266 258 256 259 263 263 249 247 246 243 243 241 238 237 237 240 241 240 234 233 229 227 221
337 333 330 330 329 326 322 318 318 313 306 294 294 287 280 277 270 265 260 262 263 254 254 264 267 251 245 246 243 243 241 239 234 236 238 238 238 231 228 224 218 211
330 329 323 322 323 321 318 314 311 298 294 296 292 299 295 285 278 280 269 254 259 259 247 260 268 254 243 246 244 242 234 236 232 234 240 238 242 233 225 221 214 208
317 314 311 310 310 307 310 308 308 307 303 302 286 283 283 289 287 283 283 270 253 257 257 254 266 265 248 248 245 242 237 235 232 231 240 238 234 235 217 217 216 209
308 308 304 303 304 304 304 299 299 303 300 300 295 282 286 291 287 280 281 280 270 258 262 251 260 265 249 249 244 243 238 232 228 230 238 238 229 228 221 221 212 210